Torna al catalogo

DELTA 1 R/B(1)

AttivoLEO
NORAD 9786·ROCKET BODY·🇺🇸 United States

Lanciato Jan 28, 1977 da Cape Canaveral Space Force Station

Loading…

Prossimi Passaggi (prossime 24 ore)

TLE

AggiornatoSource: Space-Track

Epoca: Sep 14, 2026, 10:41 UTC

1 09786U 77005B   26257.44522762  .00000440  00000-0  10685-3 0  9994
2 09786  28.0115 292.8653 0408815 223.8786 132.8597 13.96746151504890

Traccia DELTA 1 R/B(1) in tempo reale con AllMySat

Download on the App Store